Time,TemperatureF,DewpointF,PressureIn,WindDirection,WindDirectionDegrees,WindSpeedMPH,WindSpeedGustMPH,Humidity,HourlyPrecipIn,Conditions,Clouds,dailyrainin,SoftwareType,DateUTC
2013-11-20 00:04:00,33.5,26.1,27.80,SSE,165,9.0,16.0,74,0.00,,---,0.00,VWS V14.01,2013-11-20 06:04:00,
2013-11-20 00:09:00,33.6,26.2,27.80,SSE,163,8.0,8.0,74,0.00,,---,0.00,VWS V14.01,2013-11-20 06:09:00,
2013-11-20 00:15:00,33.5,26.4,27.81,SSE,164,13.0,15.0,75,0.00,,---,0.00,VWS V14.01,2013-11-20 06:15:00,
2013-11-20 00:20:00,33.5,26.4,27.81,SE,136,3.0,5.0,75,0.00,,---,0.00,VWS V14.01,2013-11-20 06:20:00,
2013-11-20 00:25:00,33.5,26.1,27.81,South,180,4.0,12.0,74,0.00,,---,0.00,VWS V14.01,2013-11-20 06:25:00,
2013-11-20 00:30:00,33.5,26.1,27.80,SSW,211,7.0,11.0,74,0.00,,---,0.00,VWS V14.01,2013-11-20 06:30:00,
2013-11-20 00:35:00,33.6,26.5,27.80,SSW,192,3.0,7.0,75,0.00,,---,0.00,VWS V14.01,2013-11-20 06:35:00,
2013-11-20 00:41:00,33.6,26.5,27.80,South,175,2.0,5.0,75,0.00,,---,0.00,VWS V14.01,2013-11-20 06:41:00,
2013-11-20 00:46:00,33.6,26.5,27.80,SSE,167,3.0,8.0,75,0.00,,---,0.00,VWS V14.01,2013-11-20 06:46:00,
2013-11-20 00:51:00,33.6,26.5,27.80,SW,219,9.0,13.0,75,0.00,,---,0.00,VWS V14.01,2013-11-20 06:51:00,
2013-11-20 00:56:00,33.7,26.3,27.80,South,191,2.0,13.0,74,0.00,,---,0.00,VWS V14.01,2013-11-20 06:56:00,
2013-11-20 01:01:00,33.7,26.3,27.80,SW,217,4.0,11.0,74,0.00,,---,0.00,VWS V14.01,2013-11-20 07:01:00,
2013-11-20 01:06:00,33.7,26.3,27.80,South,186,9.0,12.0,74,0.00,,---,0.00,VWS V14.01,2013-11-20 07:06:00,
2013-11-20 01:11:00,33.8,26.4,27.80,South,180,2.0,8.0,74,0.00,,---,0.00,VWS V14.01,2013-11-20 07:11:00,
2013-11-20 01:16:00,33.8,26.7,27.80,South,174,9.0,10.0,75,0.00,,---,0.00,VWS V14.01,2013-11-20 07:16:00,
2013-11-20 01:22:00,34.0,26.6,27.80,SSW,212,7.0,7.0,74,0.00,,---,0.00,VWS V14.01,2013-11-20 07:22:00,
2013-11-20 01:27:00,34.1,27.0,27.80,SSE,160,6.0,8.0,75,0.00,,---,0.00,VWS V14.01,2013-11-20 07:27:00,
2013-11-20 01:32:00,34.1,26.7,27.80,SSW,204,7.0,17.0,74,0.00,,---,0.00,VWS V14.01,2013-11-20 07:32:00,
2013-11-20 01:37:00,34.5,26.8,27.80,SSW,213,7.0,7.0,73,0.00,,---,0.00,VWS V14.01,2013-11-20 07:37:00,
2013-11-20 01:42:00,34.4,27.0,27.80,SSE,166,2.0,5.0,74,0.00,,---,0.00,VWS V14.01,2013-11-20 07:42:00,
2013-11-20 01:48:00,34.4,27.0,27.79,SW,217,6.0,11.0,74,0.00,,---,0.00,VWS V14.01,2013-11-20 07:48:00,
2013-11-20 01:53:00,34.4,27.0,27.79,South,175,6.0,6.0,74,0.00,,---,0.00,VWS V14.01,2013-11-20 07:53:00,
2013-11-20 01:58:00,34.8,27.0,27.79,South,187,8.0,8.0,73,0.00,,---,0.00,VWS V14.01,2013-11-20 07:58:00,
2013-11-20 02:03:00,34.8,27.0,27.80,South,173,3.0,8.0,73,0.00,,---,0.00,VWS V14.01,2013-11-20 08:03:00,
2013-11-20 02:08:00,34.8,27.0,27.80,South,176,4.0,8.0,73,0.00,,---,0.00,VWS V14.01,2013-11-20 08:08:00,
2013-11-20 02:14:00,34.9,27.1,27.80,South,175,4.0,8.0,73,0.00,,---,0.00,VWS V14.01,2013-11-20 08:14:00,
2013-11-20 02:19:00,34.9,27.1,27.80,SW,221,6.0,9.0,73,0.00,,---,0.00,VWS V14.01,2013-11-20 08:19:00,
2013-11-20 02:24:00,34.8,27.0,27.80,SW,228,9.0,13.0,73,0.00,,---,0.00,VWS V14.01,2013-11-20 08:24:00,
2013-11-20 02:29:00,35.1,27.3,27.80,South,184,3.0,7.0,73,0.00,,---,0.00,VWS V14.01,2013-11-20 08:29:00,
2013-11-20 02:34:00,35.0,26.9,27.79,South,179,5.0,19.0,72,0.00,,---,0.00,VWS V14.01,2013-11-20 08:34:00,
2013-11-20 02:39:00,35.3,26.9,27.79,SSW,210,6.0,6.0,71,0.00,,---,0.00,VWS V14.01,2013-11-20 08:39:00,
2013-11-20 02:45:00,35.3,26.9,27.78,South,178,7.0,11.0,71,0.00,,---,0.00,VWS V14.01,2013-11-20 08:45:00,
2013-11-20 02:50:00,35.1,27.0,27.78,SE,134,9.0,9.0,72,0.00,,---,0.00,VWS V14.01,2013-11-20 08:50:00,
2013-11-20 02:55:00,35.1,27.0,27.78,SE,144,6.0,7.0,72,0.00,,---,0.00,VWS V14.01,2013-11-20 08:55:00,
2013-11-20 03:00:00,35.5,26.7,27.78,South,184,2.0,2.0,70,0.00,,---,0.00,VWS V14.01,2013-11-20 09:00:00,
2013-11-20 03:06:00,35.4,27.3,27.78,South,175,8.0,8.0,72,0.00,,---,0.00,VWS V14.01,2013-11-20 09:06:00,
2013-11-20 03:11:00,35.2,27.1,27.78,SSE,155,7.0,11.0,72,0.00,,---,0.00,VWS V14.01,2013-11-20 09:11:00,
2013-11-20 03:16:00,35.2,26.8,27.78,South,171,3.0,12.0,71,0.00,,---,0.00,VWS V14.01,2013-11-20 09:16:00,
2013-11-20 03:21:00,35.1,27.0,27.78,South,180,9.0,15.0,72,0.00,,---,0.00,VWS V14.01,2013-11-20 09:21:00,
2013-11-20 03:26:00,35.2,26.8,27.78,SSE,167,4.0,4.0,71,0.00,,---,0.00,VWS V14.01,2013-11-20 09:26:00,
2013-11-20 03:32:00,35.2,26.8,27.78,SSW,200,1.0,6.0,71,0.00,,---,0.00,VWS V14.01,2013-11-20 09:32:00,
2013-11-20 03:37:00,35.4,27.3,27.78,SSE,153,11.0,11.0,72,0.00,,---,0.00,VWS V14.01,2013-11-20 09:37:00,
2013-11-20 03:42:00,35.5,27.0,27.78,SSW,207,5.0,17.0,71,0.00,,---,0.00,VWS V14.01,2013-11-20 09:42:00,
2013-11-20 03:47:00,35.5,26.7,27.79,South,184,6.0,8.0,70,0.00,,---,0.00,VWS V14.01,2013-11-20 09:47:00,
2013-11-20 03:52:00,35.5,27.0,27.79,South,186,4.0,9.0,71,0.00,,---,0.00,VWS V14.01,2013-11-20 09:52:00,
2013-11-20 03:57:00,35.6,27.1,27.79,SSW,200,2.0,5.0,71,0.00,,---,0.00,VWS V14.01,2013-11-20 09:57:00,
2013-11-20 04:02:00,35.7,27.2,27.79,South,174,4.0,6.0,71,0.00,,---,0.00,VWS V14.01,2013-11-20 10:02:00,
2013-11-20 04:08:00,35.7,26.9,27.79,SSW,205,7.0,10.0,70,0.00,,---,0.00,VWS V14.01,2013-11-20 10:08:00,
2013-11-20 04:13:00,35.9,27.4,27.79,South,190,4.0,4.0,71,0.00,,---,0.00,VWS V14.01,2013-11-20 10:13:00,
2013-11-20 04:18:00,35.8,27.0,27.79,SSW,198,5.0,12.0,70,0.00,,---,0.00,VWS V14.01,2013-11-20 10:18:00,
2013-11-20 04:23:00,36.1,27.3,27.79,SSW,198,4.0,9.0,70,0.00,,---,0.00,VWS V14.01,2013-11-20 10:23:00,
2013-11-20 04:28:00,36.1,26.9,27.79,SSW,194,2.0,5.0,69,0.00,,---,0.00,VWS V14.01,2013-11-20 10:28:00,
2013-11-20 04:34:00,36.2,27.0,27.79,South,179,5.0,5.0,69,0.00,,---,0.00,VWS V14.01,2013-11-20 10:34:00,
2013-11-20 04:39:00,36.1,26.9,27.79,South,184,3.0,8.0,69,0.00,,---,0.00,VWS V14.01,2013-11-20 10:39:00,
2013-11-20 04:44:00,36.2,27.0,27.79,South,190,7.0,7.0,69,0.00,,---,0.00,VWS V14.01,2013-11-20 10:44:00,
2013-11-20 04:49:00,36.3,26.8,27.79,South,170,5.0,7.0,68,0.00,,---,0.00,VWS V14.01,2013-11-20 10:49:00,
2013-11-20 04:54:00,36.4,26.5,27.79,SW,219,3.0,7.0,67,0.00,,---,0.00,VWS V14.01,2013-11-20 10:54:00,
2013-11-20 05:00:00,36.5,27.0,27.79,South,184,3.0,5.0,68,0.00,,---,0.00,VWS V14.01,2013-11-20 11:00:00,
2013-11-20 05:05:00,36.5,26.6,27.79,SSW,198,4.0,10.0,67,0.00,,---,0.00,VWS V14.01,2013-11-20 11:05:00,
2013-11-20 05:10:00,36.6,26.7,27.79,SSE,161,3.0,5.0,67,0.00,,---,0.00,VWS V14.01,2013-11-20 11:10:00,
2013-11-20 05:15:00,36.6,27.0,27.80,South,190,7.0,7.0,68,0.00,,---,0.00,VWS V14.01,2013-11-20 11:15:00,
2013-11-20 05:20:00,36.7,26.8,27.80,South,174,6.0,6.0,67,0.00,,---,0.00,VWS V14.01,2013-11-20 11:20:00,
2013-11-20 05:25:00,36.7,26.8,27.80,South,186,3.0,8.0,67,0.00,,---,0.00,VWS V14.01,2013-11-20 11:25:00,
2013-11-20 05:30:00,36.6,26.7,27.80,SSW,210,5.0,6.0,67,0.00,,---,0.00,VWS V14.01,2013-11-20 11:30:00,
2013-11-20 05:36:00,36.6,27.0,27.80,SE,144,5.0,7.0,68,0.00,,---,0.00,VWS V14.01,2013-11-20 11:36:00,
2013-11-20 05:41:00,36.7,27.1,27.80,SE,144,2.0,5.0,68,0.00,,---,0.00,VWS V14.01,2013-11-20 11:41:00,
2013-11-20 05:46:00,36.5,27.0,27.80,South,181,3.0,10.0,68,0.00,,---,0.00,VWS V14.01,2013-11-20 11:46:00,
2013-11-20 05:51:00,36.6,27.0,27.80,SSW,199,4.0,6.0,68,0.00,,---,0.00,VWS V14.01,2013-11-20 11:51:00,
2013-11-20 05:56:00,36.7,27.1,27.80,South,190,7.0,8.0,68,0.00,,---,0.00,VWS V14.01,2013-11-20 11:56:00,
2013-11-20 06:01:00,36.8,27.2,27.80,South,175,6.0,6.0,68,0.00,,---,0.00,VWS V14.01,2013-11-20 12:01:00,
2013-11-20 06:07:00,36.7,27.5,27.80,SSE,161,5.0,5.0,69,0.00,,---,0.00,VWS V14.01,2013-11-20 12:07:00,
2013-11-20 06:12:00,36.6,27.4,27.80,South,189,4.0,4.0,69,0.00,,---,0.00,VWS V14.01,2013-11-20 12:12:00,
2013-11-20 06:17:00,36.6,27.8,27.80,SSE,167,5.0,9.0,70,0.00,,---,0.00,VWS V14.01,2013-11-20 12:17:00,
2013-11-20 06:22:00,36.5,27.3,27.80,SSW,213,7.0,10.0,69,0.00,,---,0.00,VWS V14.01,2013-11-20 12:22:00,
2013-11-20 06:27:00,36.6,27.4,27.80,SSW,193,4.0,7.0,69,0.00,,---,0.00,VWS V14.01,2013-11-20 12:27:00,
2013-11-20 06:33:00,36.6,27.8,27.80,South,190,8.0,9.0,70,0.00,,---,0.00,VWS V14.01,2013-11-20 12:33:00,
2013-11-20 06:38:00,36.6,27.4,27.80,SSW,202,6.0,10.0,69,0.00,,---,0.00,VWS V14.01,2013-11-20 12:38:00,
2013-11-20 06:43:00,36.6,27.4,27.80,South,171,7.0,7.0,69,0.00,,---,0.00,VWS V14.01,2013-11-20 12:43:00,
2013-11-20 06:48:00,36.5,27.7,27.81,South,178,5.0,8.0,70,0.00,,---,0.00,VWS V14.01,2013-11-20 12:48:00,
2013-11-20 06:53:00,36.5,27.7,27.81,SSE,157,4.0,4.0,70,0.00,,---,0.00,VWS V14.01,2013-11-20 12:53:00,
2013-11-20 06:59:00,36.5,27.7,27.81,SSW,201,3.0,5.0,70,0.00,,---,0.00,VWS V14.01,2013-11-20 12:59:00,
2013-11-20 07:04:00,36.5,27.7,27.81,South,177,13.0,13.0,70,0.00,,---,0.00,VWS V14.01,2013-11-20 13:04:00,
2013-11-20 07:09:00,36.6,27.4,27.81,South,178,8.0,8.0,69,0.00,,---,0.00,VWS V14.01,2013-11-20 13:09:00,
2013-11-20 07:14:00,36.8,27.6,27.81,South,175,3.0,6.0,69,0.00,,---,0.00,VWS V14.01,2013-11-20 13:14:00,
2013-11-20 07:19:00,36.8,27.6,27.81,SSW,195,4.0,4.0,69,0.00,,---,0.00,VWS V14.01,2013-11-20 13:19:00,
2013-11-20 07:25:00,36.8,27.6,27.81,SSW,200,5.0,7.0,69,0.00,,---,0.00,VWS V14.01,2013-11-20 13:25:00,
2013-11-20 07:30:00,36.8,27.6,27.81,SSE,162,4.0,9.0,69,0.00,,---,0.00,VWS V14.01,2013-11-20 13:30:00,
2013-11-20 07:35:00,36.9,27.3,27.81,SSW,196,7.0,8.0,68,0.00,,---,0.00,VWS V14.01,2013-11-20 13:35:00,
2013-11-20 07:40:00,36.9,27.3,27.81,SW,236,3.0,7.0,68,0.00,,---,0.00,VWS V14.01,2013-11-20 13:40:00,
2013-11-20 07:45:00,37.0,27.4,27.81,SSW,212,9.0,18.0,68,0.00,,---,0.00,VWS V14.01,2013-11-20 13:45:00,
2013-11-20 07:51:00,37.1,27.2,27.81,SW,218,3.0,5.0,67,0.00,,---,0.00,VWS V14.01,2013-11-20 13:51:00,
2013-11-20 07:56:00,37.2,27.3,27.81,SSW,210,2.0,3.0,67,0.00,,---,0.00,VWS V14.01,2013-11-20 13:56:00,
2013-11-20 08:01:00,37.1,27.5,27.82,SSW,206,7.0,9.0,68,0.00,,---,0.00,VWS V14.01,2013-11-20 14:01:00,
2013-11-20 08:06:00,37.2,27.3,27.82,South,190,3.0,7.0,67,0.00,,---,0.00,VWS V14.01,2013-11-20 14:06:00,
2013-11-20 08:11:00,37.2,27.3,27.82,SW,216,5.0,5.0,67,0.00,,---,0.00,VWS V14.01,2013-11-20 14:11:00,
2013-11-20 08:17:00,37.3,27.4,27.83,South,176,9.0,9.0,67,0.00,,---,0.00,VWS V14.01,2013-11-20 14:17:00,
2013-11-20 08:22:00,37.4,27.1,27.83,South,186,7.0,15.0,66,0.00,,---,0.00,VWS V14.01,2013-11-20 14:22:00,
2013-11-20 08:27:00,37.5,27.2,27.83,SSW,206,9.0,9.0,66,0.00,,---,0.00,VWS V14.01,2013-11-20 14:27:00,
2013-11-20 08:32:00,37.5,27.2,27.83,South,181,9.0,13.0,66,0.00,,---,0.00,VWS V14.01,2013-11-20 14:32:00,
2013-11-20 08:37:00,37.6,26.9,27.83,South,181,5.0,8.0,65,0.00,,---,0.00,VWS V14.01,2013-11-20 14:37:00,
2013-11-20 08:42:00,37.6,27.3,27.83,South,173,7.0,9.0,66,0.00,,---,0.00,VWS V14.01,2013-11-20 14:42:00,
2013-11-20 08:47:00,37.7,27.0,27.83,SSW,196,5.0,5.0,65,0.00,,---,0.00,VWS V14.01,2013-11-20 14:47:00,
2013-11-20 08:52:00,37.7,27.4,27.83,SSW,200,5.0,5.0,66,0.00,,---,0.00,VWS V14.01,2013-11-20 14:52:00,
2013-11-20 08:57:00,37.7,27.0,27.83,SW,216,5.0,7.0,65,0.00,,---,0.00,VWS V14.01,2013-11-20 14:57:00,
2013-11-20 09:03:00,37.8,27.1,27.83,SSW,193,4.0,7.0,65,0.00,,---,0.00,VWS V14.01,2013-11-20 15:03:00,
2013-11-20 09:08:00,37.8,27.1,27.83,SSW,198,3.0,4.0,65,0.00,,---,0.00,VWS V14.01,2013-11-20 15:08:00,
2013-11-20 09:13:00,37.7,27.0,27.83,SSW,202,4.0,7.0,65,0.00,,---,0.00,VWS V14.01,2013-11-20 15:13:00,
2013-11-20 09:18:00,37.8,27.1,27.84,South,181,3.0,4.0,65,0.00,,---,0.00,VWS V14.01,2013-11-20 15:18:00,
2013-11-20 09:23:00,37.7,27.4,27.84,East,98,6.0,6.0,66,0.00,,---,0.00,VWS V14.01,2013-11-20 15:23:00,
2013-11-20 09:28:00,37.6,27.3,27.84,SSW,207,7.0,7.0,66,0.00,,---,0.00,VWS V14.01,2013-11-20 15:28:00,
2013-11-20 09:33:00,37.7,27.0,27.84,SSW,193,6.0,6.0,65,0.00,,---,0.00,VWS V14.01,2013-11-20 15:33:00,
2013-11-20 09:39:00,37.7,27.0,27.84,SSW,194,2.0,5.0,65,0.00,,---,0.00,VWS V14.01,2013-11-20 15:39:00,
2013-11-20 09:44:00,37.8,27.1,27.84,SSW,213,5.0,11.0,65,0.00,,---,0.00,VWS V14.01,2013-11-20 15:44:00,
2013-11-20 09:49:00,37.7,27.0,27.84,SSW,200,2.0,9.0,65,0.00,,---,0.00,VWS V14.01,2013-11-20 15:49:00,
2013-11-20 09:54:00,37.7,27.0,27.84,South,182,5.0,12.0,65,0.00,,---,0.00,VWS V14.01,2013-11-20 15:54:00,
2013-11-20 09:59:00,37.8,26.7,27.84,SSE,166,7.0,7.0,64,0.00,,---,0.00,VWS V14.01,2013-11-20 15:59:00,
2013-11-20 10:04:00,37.9,26.8,27.84,WSW,238,3.0,8.0,64,0.00,,---,0.00,VWS V14.01,2013-11-20 16:04:00,
2013-11-20 10:09:00,37.9,26.8,27.84,ESE,109,7.0,7.0,64,0.00,,---,0.00,VWS V14.01,2013-11-20 16:09:00,
2013-11-20 10:14:00,38.0,26.9,27.84,SSE,167,2.0,3.0,64,0.00,,---,0.00,VWS V14.01,2013-11-20 16:14:00,
2013-11-20 10:20:00,38.2,26.7,27.85,SSW,205,3.0,5.0,63,0.00,,---,0.00,VWS V14.01,2013-11-20 16:20:00,
2013-11-20 10:25:00,38.2,27.1,27.85,SSE,167,5.0,7.0,64,0.00,,---,0.00,VWS V14.01,2013-11-20 16:25:00,
2013-11-20 10:30:00,38.4,26.5,27.85,SSW,209,2.0,6.0,62,0.00,,---,0.00,VWS V14.01,2013-11-20 16:30:00,
2013-11-20 10:35:00,38.6,26.7,27.85,South,179,3.0,7.0,62,0.00,,---,0.00,VWS V14.01,2013-11-20 16:35:00,
2013-11-20 10:40:00,38.8,26.5,27.85,SSE,158,8.0,8.0,61,0.00,,---,0.00,VWS V14.01,2013-11-20 16:40:00,
2013-11-20 10:45:00,38.9,27.0,27.85,SSE,156,9.0,9.0,62,0.00,,---,0.00,VWS V14.01,2013-11-20 16:45:00,
2013-11-20 10:50:00,38.9,26.2,27.85,South,184,6.0,7.0,60,0.00,,---,0.00,VWS V14.01,2013-11-20 16:50:00,
2013-11-20 10:55:00,38.9,26.6,27.85,SSW,196,2.0,3.0,61,0.00,,---,0.00,VWS V14.01,2013-11-20 16:55:00,
2013-11-20 11:00:00,39.0,26.3,27.85,SSW,208,0.0,7.0,60,0.00,,---,0.00,VWS V14.01,2013-11-20 17:00:00,
2013-11-20 11:05:00,39.0,26.3,27.85,South,178,7.0,9.0,60,0.00,,---,0.00,VWS V14.01,2013-11-20 17:05:00,
2013-11-20 11:10:00,38.9,26.2,27.85,SSW,197,6.0,8.0,60,0.00,,---,0.00,VWS V14.01,2013-11-20 17:10:00,
2013-11-20 11:15:00,38.9,26.6,27.85,SSW,205,3.0,6.0,61,0.00,,---,0.00,VWS V14.01,2013-11-20 17:15:00,
2013-11-20 11:20:00,38.9,25.8,27.85,SSW,198,1.0,2.0,59,0.00,,---,0.00,VWS V14.01,2013-11-20 17:20:00,
2013-11-20 11:26:00,38.9,26.2,27.85,SSE,158,1.0,3.0,60,0.00,,---,0.00,VWS V14.01,2013-11-20 17:26:00,
2013-11-20 11:31:00,38.8,25.7,27.85,SSW,199,1.0,4.0,59,0.00,,---,0.00,VWS V14.01,2013-11-20 17:31:00,
2013-11-20 11:36:00,38.8,26.1,27.85,South,170,2.0,4.0,60,0.00,,---,0.00,VWS V14.01,2013-11-20 17:36:00,
2013-11-20 11:41:00,38.8,26.1,27.85,SSW,194,1.0,3.0,60,0.00,,---,0.00,VWS V14.01,2013-11-20 17:41:00,
2013-11-20 11:46:00,38.7,26.4,27.86,South,188,0.0,3.0,61,0.00,,---,0.00,VWS V14.01,2013-11-20 17:46:00,
2013-11-20 11:51:00,38.7,26.4,27.86,South,181,0.0,4.0,61,0.00,,---,0.00,VWS V14.01,2013-11-20 17:51:00,
2013-11-20 11:56:00,38.7,26.0,27.86,South,184,6.0,6.0,60,0.00,,---,0.00,VWS V14.01,2013-11-20 17:56:00,
2013-11-20 12:02:00,38.7,26.0,27.86,SSW,204,4.0,5.0,60,0.00,,---,0.00,VWS V14.01,2013-11-20 18:02:00,
2013-11-20 12:07:00,38.8,26.9,27.86,South,180,1.0,1.0,62,0.00,,---,0.00,VWS V14.01,2013-11-20 18:07:00,
2013-11-20 12:12:00,38.7,26.8,27.86,South,180,0.0,2.0,62,0.00,,---,0.00,VWS V14.01,2013-11-20 18:12:00,
2013-11-20 12:17:00,38.7,26.4,27.86,South,180,3.0,5.0,61,0.00,,---,0.00,VWS V14.01,2013-11-20 18:17:00,
2013-11-20 12:22:00,38.7,26.8,27.86,SSW,209,0.0,1.0,62,0.00,,---,0.00,VWS V14.01,2013-11-20 18:22:00,
2013-11-20 12:27:00,38.7,26.8,27.86,South,188,5.0,5.0,62,0.00,,---,0.00,VWS V14.01,2013-11-20 18:27:00,
2013-11-20 12:32:00,38.7,26.8,27.86,SSW,192,0.0,1.0,62,0.00,,---,0.00,VWS V14.01,2013-11-20 18:32:00,
2013-11-20 12:38:00,38.7,26.8,27.86,SSW,194,0.0,2.0,62,0.00,,---,0.00,VWS V14.01,2013-11-20 18:38:00,
2013-11-20 12:43:00,38.7,26.8,27.86,SW,225,1.0,3.0,62,0.00,,---,0.00,VWS V14.01,2013-11-20 18:43:00,
2013-11-20 12:48:00,38.6,27.1,27.86,South,188,4.0,6.0,63,0.00,,---,0.00,VWS V14.01,2013-11-20 18:48:00,
2013-11-20 12:53:00,38.6,27.1,27.86,SSE,164,6.0,6.0,63,0.00,,---,0.00,VWS V14.01,2013-11-20 18:53:00,
2013-11-20 12:59:00,38.6,27.1,27.86,South,178,3.0,3.0,63,0.00,,---,0.00,VWS V14.01,2013-11-20 18:59:00,
2013-11-20 13:04:00,38.7,26.8,27.86,South,170,0.0,1.0,62,0.00,,---,0.00,VWS V14.01,2013-11-20 19:04:00,
2013-11-20 13:09:00,38.8,26.9,27.86,South,177,2.0,6.0,62,0.00,,---,0.00,VWS V14.01,2013-11-20 19:09:00,
2013-11-20 13:14:00,38.9,27.0,27.86,South,171,1.0,2.0,62,0.00,,---,0.00,VWS V14.01,2013-11-20 19:14:00,
2013-11-20 13:19:00,38.9,26.6,27.86,South,180,0.0,2.0,61,0.00,,---,0.00,VWS V14.01,2013-11-20 19:19:00,
2013-11-20 13:25:00,38.9,27.0,27.86,SW,221,1.0,1.0,62,0.00,,---,0.00,VWS V14.01,2013-11-20 19:25:00,
2013-11-20 13:30:00,38.8,26.9,27.87,South,176,0.0,2.0,62,0.00,,---,0.00,VWS V14.01,2013-11-20 19:30:00,
2013-11-20 13:35:00,38.7,27.2,27.87,South,169,3.0,6.0,63,0.00,,---,0.00,VWS V14.01,2013-11-20 19:35:00,
2013-11-20 13:40:00,38.5,27.4,27.87,South,189,0.0,1.0,64,0.00,,---,0.00,VWS V14.01,2013-11-20 19:40:00,
2013-11-20 13:45:00,38.4,27.3,27.86,SSE,165,3.0,12.0,64,0.00,,---,0.00,VWS V14.01,2013-11-20 19:45:00,
2013-11-20 13:50:00,38.3,27.6,27.86,South,182,3.0,3.0,65,0.00,,---,0.00,VWS V14.01,2013-11-20 19:50:00,
2013-11-20 13:56:00,38.1,27.8,27.86,SE,146,3.0,5.0,66,0.00,,---,0.00,VWS V14.01,2013-11-20 19:56:00,
2013-11-20 14:01:00,37.7,28.5,27.86,SSW,213,1.0,2.0,69,0.00,,---,0.00,VWS V14.01,2013-11-20 20:01:00,
2013-11-20 14:06:00,37.4,28.5,27.86,South,184,4.0,4.0,70,0.00,,---,0.00,VWS V14.01,2013-11-20 20:06:00,
2013-11-20 14:11:00,37.3,28.8,27.86,SSE,159,0.0,1.0,71,0.00,,---,0.00,VWS V14.01,2013-11-20 20:11:00,
2013-11-20 14:17:00,37.2,28.7,27.86,SSE,158,4.0,8.0,71,0.00,,---,0.00,VWS V14.01,2013-11-20 20:17:00,
2013-11-20 14:22:00,36.9,29.4,27.86,SSE,165,0.0,1.0,74,0.00,,---,0.00,VWS V14.01,2013-11-20 20:22:00,
2013-11-20 14:27:00,36.6,29.1,27.86,South,170,1.0,2.0,74,0.00,,---,0.00,VWS V14.01,2013-11-20 20:27:00,
2013-11-20 14:32:00,36.4,28.9,27.86,South,189,1.0,5.0,74,0.00,,---,0.00,VWS V14.01,2013-11-20 20:32:00,
2013-11-20 14:37:00,36.3,29.5,27.86,SSW,211,1.0,3.0,76,0.00,,---,0.00,VWS V14.01,2013-11-20 20:37:00,
2013-11-20 14:42:00,36.1,29.6,27.86,SE,146,0.0,7.0,77,0.00,,---,0.00,VWS V14.01,2013-11-20 20:42:00,
2013-11-20 14:47:00,35.8,29.9,27.87,SSW,200,3.0,6.0,79,0.00,,---,0.00,VWS V14.01,2013-11-20 20:47:00,
2013-11-20 14:52:00,35.5,30.3,27.87,South,179,3.0,3.0,81,0.00,,---,0.00,VWS V14.01,2013-11-20 20:52:00,
2013-11-20 14:58:00,35.2,30.3,27.87,SE,136,6.0,6.0,82,0.00,,---,0.00,VWS V14.01,2013-11-20 20:58:00,
2013-11-20 15:03:00,35.0,30.4,27.88,South,171,9.0,9.0,83,0.00,,---,0.00,VWS V14.01,2013-11-20 21:03:00,
2013-11-20 15:08:00,34.7,30.4,27.88,South,185,3.0,7.0,84,0.00,,---,0.00,VWS V14.01,2013-11-20 21:08:00,
2013-11-20 15:13:00,34.4,30.4,27.88,SSW,199,6.0,6.0,85,0.00,,---,0.00,VWS V14.01,2013-11-20 21:13:00,
2013-11-20 15:18:00,34.4,30.6,27.88,SSW,196,2.0,3.0,86,0.00,,---,0.00,VWS V14.01,2013-11-20 21:18:00,
2013-11-20 15:24:00,34.2,30.7,27.88,SSE,163,1.0,5.0,87,0.00,,---,0.00,VWS V14.01,2013-11-20 21:24:00,
2013-11-20 15:29:00,34.0,30.8,27.88,SSE,167,2.0,4.0,88,0.00,,---,0.00,VWS V14.01,2013-11-20 21:29:00,
2013-11-20 15:34:00,33.8,30.9,27.88,SSE,150,6.0,6.0,89,0.00,,---,0.00,VWS V14.01,2013-11-20 21:34:00,
2013-11-20 15:39:00,33.7,30.8,27.88,South,184,4.0,5.0,89,0.00,,---,0.00,VWS V14.01,2013-11-20 21:39:00,
2013-11-20 15:44:00,33.6,31.0,27.88,SSE,159,4.0,6.0,90,0.00,,---,0.00,VWS V14.01,2013-11-20 21:44:00,
2013-11-20 15:50:00,33.5,30.9,27.88,SSE,164,0.0,2.0,90,0.00,,---,0.00,VWS V14.01,2013-11-20 21:50:00,
2013-11-20 15:55:00,33.5,30.9,27.88,SSE,163,4.0,5.0,90,0.00,,---,0.00,VWS V14.01,2013-11-20 21:55:00,
2013-11-20 16:00:00,33.5,30.9,27.88,SSE,167,0.0,2.0,90,0.00,,---,0.00,VWS V14.01,2013-11-20 22:00:00,
2013-11-20 16:05:00,33.4,30.8,27.88,South,169,0.0,4.0,90,0.00,,---,0.00,VWS V14.01,2013-11-20 22:05:00,
2013-11-20 16:10:00,33.4,30.8,27.88,SSE,165,1.0,3.0,90,0.00,,---,0.00,VWS V14.01,2013-11-20 22:10:00,
2013-11-20 16:15:00,33.4,30.8,27.89,South,178,4.0,6.0,90,0.00,,---,0.00,VWS V14.01,2013-11-20 22:15:00,
2013-11-20 16:20:00,33.4,30.8,27.89,South,183,2.0,2.0,90,0.00,,---,0.00,VWS V14.01,2013-11-20 22:20:00,
2013-11-20 16:26:00,33.4,30.8,27.89,South,173,0.0,2.0,90,0.00,,---,0.00,VWS V14.01,2013-11-20 22:26:00,
2013-11-20 16:31:00,33.4,30.8,27.89,SSE,163,2.0,4.0,90,0.00,,---,0.00,VWS V14.01,2013-11-20 22:31:00,
2013-11-20 16:36:00,33.4,30.8,27.89,South,169,2.0,4.0,90,0.00,,---,0.00,VWS V14.01,2013-11-20 22:36:00,
2013-11-20 16:41:00,33.5,30.9,27.89,South,175,0.0,5.0,90,0.00,,---,0.00,VWS V14.01,2013-11-20 22:41:00,
2013-11-20 16:46:00,33.5,30.9,27.89,South,175,0.0,1.0,90,0.00,,---,0.00,VWS V14.01,2013-11-20 22:46:00,
2013-11-20 16:51:00,33.5,30.9,27.89,South,171,1.0,1.0,90,0.00,,---,0.00,VWS V14.01,2013-11-20 22:51:00,
2013-11-20 16:56:00,33.5,30.9,27.89,SSE,161,1.0,3.0,90,0.00,,---,0.00,VWS V14.01,2013-11-20 22:56:00,
2013-11-20 17:02:00,33.5,30.9,27.89,SSE,163,7.0,8.0,90,0.00,,---,0.00,VWS V14.01,2013-11-20 23:02:00,
2013-11-20 17:07:00,33.6,30.7,27.89,South,186,2.0,3.0,89,0.00,,---,0.00,VWS V14.01,2013-11-20 23:07:00,
2013-11-20 17:12:00,33.7,30.8,27.89,SSE,167,2.0,4.0,89,0.00,,---,0.00,VWS V14.01,2013-11-20 23:12:00,
2013-11-20 17:17:00,33.7,30.8,27.89,South,183,5.0,5.0,89,0.00,,---,0.00,VWS V14.01,2013-11-20 23:17:00,
2013-11-20 17:22:00,33.7,30.5,27.89,South,170,3.0,5.0,88,0.00,,---,0.00,VWS V14.01,2013-11-20 23:22:00,
2013-11-20 17:27:00,33.7,30.5,27.89,SE,144,1.0,4.0,88,0.00,,---,0.00,VWS V14.01,2013-11-20 23:27:00,
2013-11-20 17:32:00,33.7,30.5,27.90,SSE,159,1.0,4.0,88,0.00,,---,0.00,VWS V14.01,2013-11-20 23:32:00,
2013-11-20 17:38:00,33.7,30.5,27.90,SE,136,3.0,4.0,88,0.00,,---,0.00,VWS V14.01,2013-11-20 23:38:00,
2013-11-20 17:43:00,33.7,30.5,27.90,SE,128,1.0,7.0,88,0.00,,---,0.00,VWS V14.01,2013-11-20 23:43:00,
2013-11-20 17:48:00,33.7,30.2,27.91,SSE,163,1.0,1.0,87,0.00,,---,0.00,VWS V14.01,2013-11-20 23:48:00,
2013-11-20 17:53:00,33.7,30.2,27.91,SSE,162,5.0,7.0,87,0.00,,---,0.00,VWS V14.01,2013-11-20 23:53:00,
2013-11-20 17:58:00,33.7,30.2,27.91,SE,140,8.0,8.0,87,0.00,,---,0.00,VWS V14.01,2013-11-20 23:58:00,
2013-11-20 18:04:00,33.8,30.4,27.91,SSE,167,5.0,5.0,87,0.00,,---,0.00,VWS V14.01,2013-11-21 00:04:00,
2013-11-20 18:09:00,33.8,30.4,27.91,South,185,1.0,1.0,87,0.00,,---,0.00,VWS V14.01,2013-11-21 00:09:00,
2013-11-20 18:14:00,33.7,30.2,27.91,SSW,207,0.0,1.0,87,0.00,,---,0.00,VWS V14.01,2013-11-21 00:14:00,
2013-11-20 18:19:00,33.7,30.2,27.91,SSW,204,0.0,1.0,87,0.00,,---,0.00,VWS V14.01,2013-11-21 00:19:00,
2013-11-20 18:24:00,33.6,30.1,27.91,SSW,199,1.0,2.0,87,0.00,,---,0.00,VWS V14.01,2013-11-21 00:24:00,
2013-11-20 18:30:00,33.6,30.1,27.91,South,169,2.0,2.0,87,0.00,,---,0.00,VWS V14.01,2013-11-21 00:30:00,
2013-11-20 18:35:00,33.6,30.4,27.91,South,179,0.0,0.0,88,0.00,,---,0.00,VWS V14.01,2013-11-21 00:35:00,
2013-11-20 18:40:00,33.5,30.3,27.91,South,173,2.0,4.0,88,0.00,,---,0.00,VWS V14.01,2013-11-21 00:40:00,
2013-11-20 18:45:00,33.5,30.3,27.92,South,171,3.0,3.0,88,0.00,,---,0.00,VWS V14.01,2013-11-21 00:45:00,
2013-11-20 18:50:00,33.6,30.4,27.92,South,171,1.0,1.0,88,0.00,,---,0.00,VWS V14.01,2013-11-21 00:50:00,
2013-11-20 18:56:00,33.5,30.3,27.92,South,169,0.0,1.0,88,0.00,,---,0.00,VWS V14.01,2013-11-21 00:56:00,
2013-11-20 19:01:00,33.5,30.0,27.92,South,169,0.0,0.0,87,0.00,,---,0.00,VWS V14.01,2013-11-21 01:01:00,
2013-11-20 19:06:00,33.6,30.1,27.92,South,175,2.0,2.0,87,0.00,,---,0.00,VWS V14.01,2013-11-21 01:06:00,
2013-11-20 19:11:00,33.7,30.2,27.92,South,175,0.0,1.0,87,0.00,,---,0.00,VWS V14.01,2013-11-21 01:11:00,
2013-11-20 19:16:00,33.7,30.0,27.92,South,175,0.0,4.0,86,0.00,,---,0.00,VWS V14.01,2013-11-21 01:16:00,
2013-11-20 19:21:00,33.7,30.0,27.92,South,175,0.0,1.0,86,0.00,,---,0.00,VWS V14.01,2013-11-21 01:21:00,
2013-11-20 19:26:00,33.8,30.1,27.92,South,178,0.0,0.0,86,0.00,,---,0.00,VWS V14.01,2013-11-21 01:26:00,
2013-11-20 19:31:00,33.9,30.2,27.92,SSE,163,0.0,0.0,86,0.00,,---,0.00,VWS V14.01,2013-11-21 01:31:00,
2013-11-20 19:37:00,33.9,30.5,27.92,SSE,163,1.0,1.0,87,0.00,,---,0.00,VWS V14.01,2013-11-21 01:37:00,
2013-11-20 19:42:00,33.9,30.5,27.92,SSE,165,2.0,4.0,87,0.00,,---,0.00,VWS V14.01,2013-11-21 01:42:00,
2013-11-20 19:47:00,33.9,30.5,27.92,SSE,168,1.0,3.0,87,0.00,,---,0.00,VWS V14.01,2013-11-21 01:47:00,
2013-11-20 19:52:00,34.0,30.5,27.92,South,178,0.0,0.0,87,0.00,,---,0.00,VWS V14.01,2013-11-21 01:52:00,
2013-11-20 19:58:00,34.1,30.4,27.92,South,176,4.0,4.0,86,0.00,,---,0.00,VWS V14.01,2013-11-21 01:58:00,
2013-11-20 20:03:00,34.2,30.2,27.92,South,176,0.0,3.0,85,0.00,,---,0.00,VWS V14.01,2013-11-21 02:03:00,
2013-11-20 20:08:00,34.2,30.2,27.92,South,175,3.0,3.0,85,0.00,,---,0.00,VWS V14.01,2013-11-21 02:08:00,
2013-11-20 20:13:00,34.3,30.3,27.92,South,175,0.0,0.0,85,0.00,,---,0.00,VWS V14.01,2013-11-21 02:13:00,
2013-11-20 20:18:00,34.3,30.3,27.92,South,175,0.0,0.0,85,0.00,,---,0.00,VWS V14.01,2013-11-21 02:18:00,
2013-11-20 20:24:00,34.3,30.3,27.92,South,184,0.0,0.0,85,0.00,,---,0.00,VWS V14.01,2013-11-21 02:24:00,
2013-11-20 20:29:00,34.4,30.4,27.92,South,181,1.0,3.0,85,0.00,,---,0.00,VWS V14.01,2013-11-21 02:29:00,
2013-11-20 20:34:00,34.4,30.4,27.92,South,176,1.0,1.0,85,0.00,,---,0.00,VWS V14.01,2013-11-21 02:34:00,
2013-11-20 20:39:00,34.4,30.6,27.92,South,175,0.0,0.0,86,0.00,,---,0.00,VWS V14.01,2013-11-21 02:39:00,
2013-11-20 20:45:00,34.3,30.6,27.93,South,176,0.0,3.0,86,0.00,,---,0.00,VWS V14.01,2013-11-21 02:45:00,
2013-11-20 20:50:00,34.3,30.6,27.93,SSE,159,0.0,0.0,86,0.00,,---,0.00,VWS V14.01,2013-11-21 02:50:00,
2013-11-20 20:55:00,34.3,30.6,27.93,SSE,163,1.0,5.0,86,0.00,,---,0.00,VWS V14.01,2013-11-21 02:55:00,
2013-11-20 21:00:00,34.4,30.4,27.93,SSE,163,4.0,5.0,85,0.00,,---,0.00,VWS V14.01,2013-11-21 03:00:00,
2013-11-20 21:05:00,34.3,30.6,27.93,SSE,159,2.0,5.0,86,0.00,,---,0.00,VWS V14.01,2013-11-21 03:05:00,
2013-11-20 21:11:00,34.4,30.4,27.93,South,188,5.0,5.0,85,0.00,,---,0.00,VWS V14.01,2013-11-21 03:11:00,
2013-11-20 21:16:00,34.4,30.4,27.93,South,169,4.0,6.0,85,0.00,,---,0.00,VWS V14.01,2013-11-21 03:16:00,
2013-11-20 21:21:00,34.4,30.6,27.93,South,171,1.0,5.0,86,0.00,,---,0.00,VWS V14.01,2013-11-21 03:21:00,
2013-11-20 21:26:00,34.4,30.6,27.93,SSE,161,0.0,1.0,86,0.00,,---,0.00,VWS V14.01,2013-11-21 03:26:00,
2013-11-20 21:32:00,34.3,30.6,27.93,SSE,157,1.0,4.0,86,0.00,,---,0.00,VWS V14.01,2013-11-21 03:32:00,
2013-11-20 21:37:00,34.3,30.6,27.93,SSE,167,2.0,4.0,86,0.00,,---,0.00,VWS V14.01,2013-11-21 03:37:00,
2013-11-20 21:42:00,34.4,30.6,27.93,South,173,1.0,4.0,86,0.00,,---,0.00,VWS V14.01,2013-11-21 03:42:00,
2013-11-20 21:47:00,34.3,30.6,27.93,SSW,200,3.0,6.0,86,0.00,,---,0.00,VWS V14.01,2013-11-21 03:47:00,
2013-11-20 21:52:00,34.3,30.6,27.93,SSW,198,0.0,0.0,86,0.00,,---,0.00,VWS V14.01,2013-11-21 03:52:00,
2013-11-20 21:57:00,34.2,30.7,27.93,SSW,198,0.0,0.0,87,0.00,,---,0.00,VWS V14.01,2013-11-21 03:57:00,
2013-11-20 22:02:00,34.1,30.6,27.94,South,170,3.0,3.0,87,0.00,,---,0.00,VWS V14.01,2013-11-21 04:02:00,
2013-11-20 22:07:00,34.1,30.6,27.94,South,191,1.0,1.0,87,0.00,,---,0.00,VWS V14.01,2013-11-21 04:07:00,
2013-11-20 22:12:00,34.0,30.8,27.94,South,190,0.0,0.0,88,0.00,,---,0.00,VWS V14.01,2013-11-21 04:12:00,
2013-11-20 22:17:00,34.0,30.8,27.94,South,185,2.0,2.0,88,0.00,,---,0.00,VWS V14.01,2013-11-21 04:17:00,
2013-11-20 22:22:00,33.9,30.7,27.94,South,186,2.0,3.0,88,0.00,,---,0.00,VWS V14.01,2013-11-21 04:22:00,
2013-11-20 22:28:00,33.9,30.7,27.94,South,178,0.0,3.0,88,0.00,,---,0.00,VWS V14.01,2013-11-21 04:28:00,
2013-11-20 22:33:00,33.9,30.7,27.94,SSE,155,0.0,0.0,88,0.00,,---,0.00,VWS V14.01,2013-11-21 04:33:00,
2013-11-20 22:38:00,33.8,30.6,27.94,SSE,162,2.0,3.0,88,0.00,,---,0.00,VWS V14.01,2013-11-21 04:38:00,
2013-11-20 22:43:00,33.8,30.9,27.94,SSE,164,0.0,1.0,89,0.00,,---,0.00,VWS V14.01,2013-11-21 04:43:00,
2013-11-20 22:48:00,33.8,30.9,27.94,South,191,1.0,5.0,89,0.00,,---,0.00,VWS V14.01,2013-11-21 04:48:00,
2013-11-20 22:53:00,33.7,30.8,27.94,SSW,192,0.0,2.0,89,0.00,,---,0.00,VWS V14.01,2013-11-21 04:53:00,
2013-11-20 22:58:00,33.7,30.8,27.94,SSW,193,0.0,3.0,89,0.00,,---,0.00,VWS V14.01,2013-11-21 04:58:00,
2013-11-20 23:01:00,33.7,30.8,27.94,SSW,194,0.0,4.0,89,0.00,,---,0.00,VWS V14.01,2013-11-21 05:01:00,
2013-11-20 23:03:00,33.7,30.8,27.94,SSW,194,2.0,5.0,89,0.00,,---,0.00,VWS V14.01,2013-11-21 05:03:00,
2013-11-20 23:04:00,33.7,30.8,27.94,SSW,194,1.0,3.0,89,0.00,,---,0.00,VWS V14.01,2013-11-21 05:04:00,
2013-11-20 23:06:00,33.7,30.8,27.94,SSW,192,0.0,4.0,89,0.00,,---,0.00,VWS V14.01,2013-11-21 05:06:00,
2013-11-20 23:11:00,33.6,30.7,27.94,SSE,155,2.0,8.0,89,0.00,,---,0.00,VWS V14.01,2013-11-21 05:11:00,
2013-11-20 23:16:00,33.6,31.0,27.94,SSW,207,0.0,1.0,90,0.00,,---,0.00,VWS V14.01,2013-11-21 05:16:00,
2013-11-20 23:22:00,33.6,31.0,27.94,South,187,2.0,4.0,90,0.00,,---,0.00,VWS V14.01,2013-11-21 05:22:00,
2013-11-20 23:27:00,33.6,31.0,27.94,South,188,1.0,4.0,90,0.00,,---,0.00,VWS V14.01,2013-11-21 05:27:00,
2013-11-20 23:32:00,33.5,30.9,27.94,South,190,2.0,2.0,90,0.00,,---,0.00,VWS V14.01,2013-11-21 05:32:00,
2013-11-20 23:37:00,33.5,30.9,27.94,South,185,1.0,2.0,90,0.00,,---,0.00,VWS V14.01,2013-11-21 05:37:00,
2013-11-20 23:42:00,33.4,30.8,27.94,South,176,3.0,5.0,90,0.00,,---,0.00,VWS V14.01,2013-11-21 05:42:00,
2013-11-20 23:47:00,33.4,30.8,27.94,South,188,0.0,3.0,90,0.00,,---,0.00,VWS V14.01,2013-11-21 05:47:00,
2013-11-20 23:52:00,33.4,31.1,27.94,SSE,163,0.0,2.0,91,0.00,,---,0.00,VWS V14.01,2013-11-21 05:52:00,
2013-11-20 23:57:00,33.4,31.1,27.94,South,185,1.0,2.0,91,0.00,,---,0.00,VWS V14.01,2013-11-21 05:57:00,
2013-11-20 23:58:00,33.4,31.1,27.94,South,185,2.0,2.0,91,0.00,,---,0.00,VWS V14.01,2013-11-21 05:58:00,